Location: Praha
(50.0830°N, 14.4670°E)
Time: 20:40:54
(UTC+01:00)

Envisat - Visible Passes

Search period start: 21 January 2022 00:00
Search period end: 31 January 2022 00:00
Orbit: 764 x 766 km, 98.2° (Epoch: 21 January)

Date Brightness Start Highest point End Pass type
(mag) Time Alt. Az. Time Alt. Az. Time Alt. Az.
21 Jan 5.9 03:28:32 10° ENE 03:30:41 13° E 03:32:49 10° ESE visible
21 Jan 3.0 05:05:24 10° NNE 05:10:31 81° ESE 05:15:37 10° SSW visible
21 Jan 4.3 06:45:31 10° NNW 06:48:56 19° WNW 06:52:22 10° W visible
22 Jan 4.2 04:28:43 10° NNE 04:33:31 40° E 04:38:17 10° SSE visible
22 Jan 3.6 06:07:56 10° N 06:12:27 33° WNW 06:16:58 10° SW visible
22 Jan 5.9 17:29:20 10° SW 17:32:22 16° W 17:35:24 10° NW visible
23 Jan 5.3 03:52:32 10° NE 03:56:19 21° E 04:00:05 10° SE visible
23 Jan 2.9 05:30:44 10° N 05:35:47 64° WNW 05:40:48 10° SSW visible
23 Jan 4.7 07:11:51 10° NNW 07:13:51 12° NW 07:15:51 10° WNW visible
24 Jan 3.3 04:53:50 10° NNE 04:58:55 66° ESE 05:03:57 10° S visible
24 Jan 4.1 06:33:39 10° N 06:37:30 22° WNW 06:41:19 10° WSW visible
25 Jan 4.6 04:17:16 10° NNE 04:21:51 33° E 04:26:24 10° SSE visible
25 Jan 3.4 05:56:13 10° N 06:00:57 40° WNW 06:05:39 10° SW visible
25 Jan 5.8 17:17:00 10° SW 17:20:37 19° W 17:24:16 10° NW visible
26 Jan 5.6 03:41:21 10° NE 03:44:35 17° E 03:47:47 10° SE visible
26 Jan 2.8 05:19:06 10° NNE 05:24:13 78° WNW 05:29:17 10° SSW visible
26 Jan 4.6 06:59:41 10° NNW 07:02:26 15° NW 07:05:11 10° W visible
27 Jan 3.7 04:42:17 10° NNE 04:47:17 53° E 04:52:14 10° S visible
27 Jan 3.9 06:21:51 10° N 06:26:01 26° WNW 06:30:11 10° WSW visible
27 Jan 6.2 17:44:29 10° WSW 17:46:16 12° W 17:48:03 10° WNW visible
28 Jan 4.9 04:05:52 10° NE 04:10:09 27° E 04:14:25 10° SSE visible
28 Jan 3.1 05:44:31 10° N 05:49:25 49° WNW 05:54:17 10° SW visible
29 Jan 5.8 03:30:22 10° ENE 03:32:49 13° E 03:35:16 10° ESE visible
29 Jan 2.9 05:07:30 10° NNE 05:12:37 86° ESE 05:17:42 10° SSW visible
29 Jan 4.4 06:47:42 10° NNW 06:51:00 18° NW 06:54:17 10° W visible
30 Jan 4.1 04:30:47 10° NNE 04:35:38 43° E 04:40:27 10° S visible
30 Jan 3.7 06:10:04 10° N 06:14:32 31° WNW 06:18:58 10° SW visible
30 Jan 6.0 17:31:41 10° WSW 17:34:30 15° W 17:37:19 10° NW visible
